Location: Unspecified
(0.0000°N, 0.0000°E)
Time: 05:15:05
(UTC+00:00)

Explorer 7 - Pass Details

Date: 08 October 2020
Orbit: 484 x 678 km, 50.3° (Epoch: 28 October)

Event Time Altitude Azimuth Distance (km) Brightness Sun altitude
Rises 05:04:06 0° 353° (N) 3,012 10.5 -10.8°
Reaches altitude 10° 05:07:22 10° 16° (NNE) 2,099 9.9 -10.0°
Maximum altitude 05:10:13 15° 52° (NE) 1,753 10.0 -9.3°
Drops below altitude 10° 05:13:02 10° 88° (E) 2,078 11.4 -8.6°
Sets 05:16:14 0° 110° (ESE) 2,966 12.4 -7.8°
